Location: Gull Harbor
(47.1000°N, 122.9000°W)
Time: 23:59:17
(UTC-07:00)

Tiangong - Pass Details

Date: 22 April 2024
Orbit: 372 x 376 km, 41.5° (Epoch: 19 May)

Event Time Altitude Azimuth Distance (km) Brightness Sun altitude
Rises 21:00:33 0° 254° (WSW) 2,261 2.5 -8.5°
Reaches altitude 10° 21:02:47 10° 243° (WSW) 1,403 1.2 -8.8°
Maximum altitude 21:05:34 29° 181° (S) 736 -1.0 -9.2°
Enters shadow 21:07:41 14° 126° (SE) 1,162 -0.4 -9.5°
